STARLINK-38151, 100168

Orbit data source: Space-Track

STARLINK-38151, 100168 is a payload satellite owned by SpaceX/Seattle (US) in SSO that was launched on Sat, 25 Jul 2026 UTC launched from the Air Force Western Test Range (AFWTR). Payload-class satellites include a variety of spacecraft equipped with specific instruments for various scientific and technological missions. These include communications satellites like Starlink; space stations such as the ISS; scientific satellites like the Hubble; Earth observation satellites from companies like Planet Labs, Umbra, and HawkEye 360; GPS; miniature CubeSats for education and research; and military/defense satellites.

Loading next visibility...
Identifier
100168, 2026-171W
Orbit
SSO
Country
Flag of USUS
Related business
Manufacturer
SpaceX/Seattle
Mission
Operational spacecraft
Bus & Motor
STARLINK V2MO, Unknown motor
Mass
575 kg wet, ~530 kg dry
Launch date (UTC)
2026-07-25 (2 weeks ago)
Launch vehicle
Unknown
Launch site
Air Force Western Test Range (AFWTR)
Object type
Payload
Rocket body
Debris
Shape & HBR
BOX + PAN, 17.7 m
Radar Cross Section
RCS unknown

Expand to show TLE details & history
Last TLE update: 23 hours ago

TLE from 23 hours ago
0 STARLINK-38151
1 A0168U 26171W   26219.08348920  .00067684  00000-0  35112-3 0  9992
2 A0168  97.2850 250.5524 0001270  54.9504 305.1883 15.80830789  1983
Epoch: 2026-08-07T02:00Z
TLE epoch observation values (Epoch: 2026-08-07T02:00:13.466Z)
Latitude
-0.00007°
Longitude
-95.11798°
Altitude
330.775 km
Speed
7.71 km/s
True Right ascension
16h 42m 12s
True Declination
0° 00' 00"
Sunlit
Object was in full shadow at epoch
Visualization orbit readout
Latitude
Unknown
Longitude
Unknown
Altitude
Unknown
Speed
Unknown
Apparent Right ascension
Unknown
Apparent Declination
Unknown
Sunlit
N/A
Visualization observer readout
Local Sidereal Time
14:58:11
Azimuth
Unknown
Elevation
Unknown
Doppler factor
Unknown
Orbital elements
Apogee altitude
325.821 km
Perigee altitude
324.119 km
Semi-major axis
6,703.107 km
Eccentricity
0.00013
Inclination
97.285°
RAAN
250.5524°
Arg. of periapsis
54.9504°
True anomaly
305.17641°
Mean anomaly
305.1883°
Eccentric anomaly
305.18235°
Mean motion
3.95484 °/min
Orbital period
91.03 mins
BSTAR
0.00035112
Loading maneuver chart data...
Computing Atmospheric mass density...
Loading historical data...
Loading historical data...
Loading historical data...
Loading historical data...
Loading historical data...
Loading historical data...
Loading historical data...

Documentation

Showing up to 5 results
|